Current Weather Conditions: station 42085

sailwx.info

Wind from 090 at 15 knots gusting 19

Wave height 1.1 meters (3 feet), 6 second period

Air temperature 27.1° C
Water temperature 27.1° C

Last reported at 2020-Jan-18 19:00 UTC.
Time now 2020-Jan-18 20:44 UTC

Location: N 17°54' W 066°30'.
View on Google Maps.

See reports from other nearby stations

  
Tides and Currents Weather Stations Pressure Air Temp Water Temp Dewpoint Dewpoint Depression Visibility Wind Speed Wind Dir Waves Ship Positions
date/time (UTC)wind fromknots sea level pressurealtimeterstation pressurevisibilityair tempwater tempwave heightnotes
2020-Jan-18 19:00 090 15 gusting 19 27.127.1 1.1
2020-Jan-18 18:50 090 17 gusting 19 27.0
2020-Jan-18 18:40 090 17 gusting 21 27.0
2020-Jan-18 18:30 090 17 gusting 19 27.0
2020-Jan-18 18:20 090 17 gusting 19 27.0
2020-Jan-18 18:10 090 17 gusting 19 26.9
2020-Jan-18 18:00 090 17 gusting 19 27.027.1 1.2
2020-Jan-18 17:50 100 15 gusting 19 27.0
2020-Jan-18 17:30 090 17 gusting 19 26.9
2020-Jan-18 17:20 090 15 gusting 19 27.1
2020-Jan-18 17:10 090 17 gusting 19 27.2
2020-Jan-18 17:00 090 15 gusting 17 27.227.1 1.0
2020-Jan-18 16:50 090 15 gusting 17 27.1
2020-Jan-18 16:40 090 15 gusting 17 27.0
2020-Jan-18 16:30 090 15 gusting 17 26.9
2020-Jan-18 16:20 090 13 gusting 17 27.1
2020-Jan-18 16:10 080 13 gusting 17 27.1
2020-Jan-18 16:00 090 15 gusting 17 27.027.3 1.1
2020-Jan-18 15:50 090 15 gusting 17 26.8
2020-Jan-18 15:40 090 13 gusting 17 26.7
2020-Jan-18 15:30 090 13 gusting 15 26.5
2020-Jan-18 15:20 090 13 gusting 17 26.4
2020-Jan-18 15:10 090 13 gusting 17 26.3
2020-Jan-18 15:00 090 15 gusting 19 26.227.2 1.0
2020-Jan-18 14:50 090 15 gusting 21 26.1
2020-Jan-18 14:30 080 15 gusting 17 26.3
2020-Jan-18 14:20 070 15 gusting 19 26.3
2020-Jan-18 14:10 060 9 gusting 17 26.0
2020-Jan-18 14:00 060 7 gusting 11 25.727.2 0.9
2020-Jan-18 13:50 050 7 gusting 9 25.6
2020-Jan-18 13:40 040 7 gusting 9 25.6
2020-Jan-18 13:30 050 7 gusting 9 25.5
2020-Jan-18 13:20 010 5 gusting 9 25.7
2020-Jan-18 13:10 020 5 gusting 9 25.8
2020-Jan-18 13:00 020 7 gusting 11 25.927.1 0.8
2020-Jan-18 12:50 030 9 gusting 11 25.6
2020-Jan-18 12:40 040 9 gusting 11 25.5
2020-Jan-18 12:30 050 9 gusting 11 25.5
2020-Jan-18 12:20 040 9 gusting 11 25.4
2020-Jan-18 12:10 050 9 gusting 11 25.7
2020-Jan-18 12:00 050 9 gusting 11 25.626.9 0.7
2020-Jan-18 11:50 060 9 gusting 11 25.6
2020-Jan-18 11:40 060 9 gusting 11 25.4
2020-Jan-18 11:30 060 7 gusting 11 25.4
2020-Jan-18 11:20 050 7 gusting 9 25.2
2020-Jan-18 11:10 040 9 gusting 11 25.2
2020-Jan-18 11:00 050 9 gusting 11 25.226.9 0.8
2020-Jan-18 10:50 050 9 gusting 13 25.2
2020-Jan-18 10:40 050 9 gusting 11 25.3
2020-Jan-18 10:30 050 9 gusting 13 25.3
2020-Jan-18 10:20 050 9 gusting 11 25.2
2020-Jan-18 10:10 050 9 gusting 11 25.3
2020-Jan-18 10:00 050 9 gusting 11 25.426.9 0.7
2020-Jan-18 09:50 060 11 gusting 11 25.3
2020-Jan-18 09:40 060 11 gusting 13 25.3
2020-Jan-18 09:30 050 9 gusting 13 25.2
2020-Jan-18 09:20 050 7 gusting 9 25.2
2020-Jan-18 09:10 050 9 gusting 9 25.1
2020-Jan-18 09:00 050 9 gusting 11 25.226.9 0.7
2020-Jan-18 08:50 040 7 gusting 9 25.1
2020-Jan-18 08:00 040 9 gusting 11 25.126.7 0.7
2020-Jan-18 07:50 050 9 gusting 11 25.1
2020-Jan-18 07:40 050 9 gusting 11 25.1
2020-Jan-18 07:30 050 9 gusting 11 25.2
2020-Jan-18 07:20 060 9 gusting 11 25.2
2020-Jan-18 07:10 060 9 gusting 11 25.3
2020-Jan-18 07:00 060 9 gusting 9 25.426.9 0.7
2020-Jan-18 06:50 060 9 gusting 11 25.4
2020-Jan-18 06:40 060 9 gusting 9 25.4
2020-Jan-18 06:30 060 9 gusting 11 25.4
2020-Jan-18 06:20 050 9 gusting 11 25.5
2020-Jan-18 06:10 050 9 gusting 11 25.5
2020-Jan-18 06:00 050 9 gusting 11 25.626.7 0.7
2020-Jan-18 05:50 050 9 gusting 11 25.6
2020-Jan-18 05:40 040 9 gusting 11 25.7
2020-Jan-18 05:30 040 9 gusting 11 25.7
2020-Jan-18 05:20 040 9 gusting 11 25.8
2020-Jan-18 05:10 040 11 gusting 11 25.8
2020-Jan-18 05:00 040 9 gusting 11 25.826.9 0.7
2020-Jan-18 04:50 040 9 gusting 13 25.8
2020-Jan-18 04:40 040 9 gusting 11 25.8
2020-Jan-18 04:30 040 9 gusting 11 25.8
2020-Jan-18 04:20 050 9 gusting 11 25.9
2020-Jan-18 04:10 050 7 gusting 9 25.8
2020-Jan-18 04:00 050 9 gusting 11 25.827.1 0.8
2020-Jan-18 03:50 050 9 gusting 13 25.9
2020-Jan-18 03:40 040 9 gusting 11 25.9
2020-Jan-18 03:30 030 11 gusting 13 25.9
2020-Jan-18 03:20 030 11 gusting 13 26.0
2020-Jan-18 03:10 030 11 gusting 13 25.9
2020-Jan-18 03:00 030 11 gusting 13 26.027.2 0.8
2020-Jan-18 02:50 040 11 gusting 11 26.0
2020-Jan-18 02:40 040 9 gusting 11 26.1
2020-Jan-18 02:30 050 9 gusting 11 26.1
2020-Jan-18 02:20 050 11 gusting 11 26.1
2020-Jan-18 02:10 050 11 gusting 13 26.2
2020-Jan-18 02:00 050 11 gusting 13 26.227.2 0.9
2020-Jan-18 01:50 050 9 gusting 11 26.3
2020-Jan-18 01:40 050 9 gusting 11 26.3
2020-Jan-18 01:30 050 9 gusting 11 26.5
2020-Jan-18 01:20 060 9 gusting 11 26.5
2020-Jan-18 01:10 060 11 gusting 13 26.5
2020-Jan-18 01:00 060 11 gusting 13 26.627.2 1.0
2020-Jan-18 00:50 060 11 gusting 13 26.7
2020-Jan-18 00:40 060 13 gusting 15 26.7
2020-Jan-18 00:30 070 13 gusting 15 26.9
2020-Jan-18 00:20 070 13 gusting 15 27.0
2020-Jan-18 00:10 070 13 gusting 17 27.0
2020-Jan-18 00:00 070 15 gusting 17 27.027.2 1.0
2020-Jan-17 23:50 080 15 gusting 19 26.9
2020-Jan-17 23:40 080 15 gusting 17 26.8
2020-Jan-17 23:30 080 13 gusting 17 26.9
2020-Jan-17 23:20 080 17 gusting 19 26.9
2020-Jan-17 23:10 080 17 gusting 19 26.8
2020-Jan-17 23:00 090 15 gusting 19 26.927.0 1.1
2020-Jan-17 22:50 090 17 gusting 19 26.9
2020-Jan-17 22:40 090 17 gusting 19 26.9
2020-Jan-17 22:30 100 17 gusting 21 26.9
2020-Jan-17 22:20 100 17 gusting 19 26.8
2020-Jan-17 22:10 100 17 gusting 21 26.9
2020-Jan-17 22:00 100 17 gusting 21 26.927.1 1.0
2020-Jan-17 21:50 100 17 gusting 19 26.9
2020-Jan-17 21:40 100 17 gusting 21 26.9
2020-Jan-17 21:30 100 17 gusting 21 26.9
2020-Jan-17 21:20 100 17 gusting 19 27.0
2020-Jan-17 21:10 100 17 gusting 19 27.0
2020-Jan-17 21:00 100 17 gusting 19 27.027.1 1.0
2020-Jan-17 20:50 100 17 gusting 21 27.0
2020-Jan-17 20:40 100 17 gusting 19 27.0
2020-Jan-17 20:30 090 17 gusting 19 27.0
2020-Jan-17 20:20 100 17 gusting 19 27.0
2020-Jan-17 20:10 100 17 gusting 19 27.0
2020-Jan-17 20:00 100 17 gusting 19 27.027.0 1.0
2020-Jan-17 19:50 100 15 gusting 19 27.0
2020-Jan-17 19:40 100 15 gusting 17 27.0
2020-Jan-17 19:30 100 15 gusting 19 26.9
2020-Jan-17 19:20 110 15 gusting 19 27.0
2020-Jan-17 19:10 100 15 gusting 19 27.0
2020-Jan-17 19:00 100 17 gusting 19 27.027.1 0.9
2020-Jan-17 18:50 110 17 gusting 19 27.0
2020-Jan-17 18:40 100 17 gusting 21 26.9
2020-Jan-17 18:30 100 15 gusting 19 26.9
2020-Jan-17 18:20 100 15 gusting 17 26.9
2020-Jan-17 18:10 100 15 gusting 17 27.0
2020-Jan-17 18:00 100 15 gusting 17 26.927.2 1.0
2020-Jan-17 17:50 100 15 gusting 17 27.0
2020-Jan-17 17:40 100 15 gusting 19 26.9
2020-Jan-17 17:30 100 15 gusting 19 27.0
2020-Jan-17 17:20 100 15 gusting 17 26.9
2020-Jan-17 17:10 100 15 gusting 17 26.9
2020-Jan-17 17:00 110 13 gusting 17 26.827.3 0.9
2020-Jan-17 16:50 100 13 gusting 15 26.8
2020-Jan-17 16:30 090 13 gusting 17 26.9
2020-Jan-17 16:20 090 13 gusting 15 26.9
2020-Jan-17 16:10 090 11 gusting 15 26.8
2020-Jan-17 16:00 080 13 gusting 15 26.827.2 0.8
2020-Jan-17 15:50 080 11 gusting 13 26.7
2020-Jan-17 15:40 080 13 gusting 15 26.7
2020-Jan-17 15:30 080 13 gusting 15 26.7
2020-Jan-17 15:20 080 13 gusting 15 26.6
2020-Jan-17 15:10 080 13 gusting 15 26.6
2020-Jan-17 15:00 070 13 gusting 17 26.727.3 0.8
2020-Jan-17 14:50 080 13 gusting 15 26.7
2020-Jan-17 14:40 070 9 gusting 15 26.5
2020-Jan-17 14:30 070 7 gusting 9 26.2
2020-Jan-17 14:20 070 7 gusting 9 26.2
2020-Jan-17 14:10 070 7 gusting 9 26.1
2020-Jan-17 14:00 070 7 gusting 9 26.127.2 0.8
2020-Jan-17 13:50 060 7 gusting 9 25.9
2020-Jan-17 13:40 050 7 gusting 9 26.0
2020-Jan-17 13:30 040 7 gusting 9 25.8
2020-Jan-17 13:20 030 7 gusting 9 25.6
2020-Jan-17 13:10 030 7 gusting 9 25.6
2020-Jan-17 13:00 030 7 gusting 9 25.627.2 0.8
2020-Jan-17 12:50 020 7 gusting 9 25.6
2020-Jan-17 12:40 020 7 gusting 9 25.5
2020-Jan-17 12:30 030 7 gusting 9 25.5
2020-Jan-17 12:20 030 7 gusting 9 25.4
2020-Jan-17 12:10 020 7 gusting 9 25.4
2020-Jan-17 12:00 020 7 gusting 9 25.127.2 0.9
2020-Jan-17 11:50 020 7 gusting 9 25.1
2020-Jan-17 11:40 030 9 gusting 9 25.4
2020-Jan-17 11:30 030 9 gusting 9 25.4
2020-Jan-17 11:20 040 9 gusting 11 25.2
2020-Jan-17 11:10 030 7 gusting 9 25.1
2020-Jan-17 11:00 020 7 gusting 9 24.827.3 0.9
2020-Jan-17 10:50 020 7 gusting 9 24.9
2020-Jan-17 10:40 020 7 gusting 9 25.1
2020-Jan-17 10:30 030 9 gusting 9 25.3
2020-Jan-17 10:20 040 9 gusting 11 25.2
2020-Jan-17 10:10 040 9 gusting 11 25.3
2020-Jan-17 10:00 020 9 gusting 11 25.127.1 0.9
2020-Jan-17 09:50 020 9 gusting 9 25.1
2020-Jan-17 09:40 020 7 gusting 9 25.0
2020-Jan-17 09:30 020 7 gusting 9 25.1
2020-Jan-17 09:20 020 7 gusting 9 25.2
2020-Jan-17 09:10 030 9 gusting 11 25.5
2020-Jan-17 09:00 040 9 gusting 11 25.426.9 0.8
2020-Jan-17 08:50 040 9 gusting 11 25.4
2020-Jan-17 08:40 040 7 gusting 11 25.5
2020-Jan-17 08:30 030 7 gusting 11 25.4
2020-Jan-17 08:20 020 7 gusting 9 25.0
2020-Jan-17 08:10 020 7 gusting 9 25.0
2020-Jan-17 08:00 010 7 gusting 9 24.826.9 0.9
2020-Jan-17 07:50 010 7 gusting 9 24.9
2020-Jan-17 07:40 010 7 gusting 9 25.2
2020-Jan-17 07:30 010 7 gusting 9 25.2
2020-Jan-17 07:20 010 9 gusting 11 25.2
2020-Jan-17 07:10 020 9 gusting 11 25.2
2020-Jan-17 07:00 020 7 gusting 9 25.227.0 0.8
2020-Jan-17 06:50 020 7 gusting 9 25.2
2020-Jan-17 06:40 030 7 gusting 9 25.4
2020-Jan-17 06:30 040 7 gusting 9 25.3
2020-Jan-17 06:20 040 7 gusting 9 25.3
2020-Jan-17 06:10 030 7 gusting 9 25.4
2020-Jan-17 06:00 030 7 gusting 9 25.427.0 0.8
2020-Jan-17 05:50 040 7 gusting 9 25.4
2020-Jan-17 05:40 030 7 gusting 9 25.4
2020-Jan-17 05:30 040 7 gusting 9 25.4
2020-Jan-17 05:20 040 9 gusting 9 25.5
2020-Jan-17 05:10 040 7 gusting 9 25.6
2020-Jan-17 05:00 050 7 gusting 9 25.527.0 0.9
2020-Jan-17 04:50 040 7 gusting 9 25.5
2020-Jan-17 04:40 040 9 gusting 9 25.7
2020-Jan-17 04:30 040 9 gusting 11 25.6
2020-Jan-17 04:20 040 9 gusting 11 25.7
2020-Jan-17 04:10 040 9 gusting 11 25.6
2020-Jan-17 04:00 040 9 gusting 9 25.627.0 0.8
2020-Jan-17 03:50 040 7 gusting 9 25.6
2020-Jan-17 03:40 040 9 gusting 9 25.6
2020-Jan-17 03:30 040 9 gusting 9 25.7
2020-Jan-17 03:20 040 9 gusting 11 25.6
2020-Jan-17 03:10 040 9 gusting 9 25.7
2020-Jan-17 03:00 26.9
2020-Jan-17 02:50 050 9 gusting 11 25.8
2020-Jan-17 02:40 050 9 gusting 11 25.8
2020-Jan-17 02:30 040 9 gusting 11 25.8
2020-Jan-17 02:20 040 9 gusting 9 25.8
2020-Jan-17 02:10 040 9 gusting 11 25.7
2020-Jan-17 02:00 040 9 gusting 11 25.826.8 0.9
2020-Jan-17 01:50 040 11 gusting 11 25.8
2020-Jan-17 01:40 040 11 gusting 13 25.8
2020-Jan-17 01:30 030 11 gusting 13 25.9
2020-Jan-17 01:20 030 11 gusting 15 25.9
2020-Jan-17 01:10 040 11 gusting 15 26.0
2020-Jan-17 01:00 040 11 gusting 15 26.026.8 1.1
2020-Jan-17 00:50 040 11 gusting 13 26.0
2020-Jan-17 00:40 040 13 gusting 15 26.0
2020-Jan-17 00:30 040 13 gusting 15 26.1
2020-Jan-17 00:20 040 13 gusting 15 26.2
2020-Jan-17 00:10 030 15 gusting 17 26.4
2020-Jan-17 00:00 040 13 gusting 15 26.426.7 1.2
2020-Jan-16 23:50 040 13 gusting 15 26.5
2020-Jan-16 23:40 040 11 gusting 15 26.6
2020-Jan-16 23:30 040 13 gusting 15 26.7
2020-Jan-16 23:20 030 11 gusting 15 26.8
2020-Jan-16 23:10 040 13 gusting 15 26.9
2020-Jan-16 23:00 030 11 gusting 13 27.026.9 1.3
2020-Jan-16 22:50 070 11 gusting 13 26.9
2020-Jan-16 22:40 080 11 gusting 15 26.8
2020-Jan-16 22:30 070 11 gusting 15 26.8
2020-Jan-16 22:20 080 13 gusting 15 26.6
2020-Jan-16 22:10 080 13 gusting 19 26.9
2020-Jan-16 22:00 080 15 gusting 21 26.527.1 1.2
2020-Jan-16 21:50 090 17 gusting 21 26.4
2020-Jan-16 21:40 090 19 gusting 21 26.5
2020-Jan-16 21:30 090 17 gusting 21 27.0
2020-Jan-16 21:20 090 17 gusting 19 27.3
2020-Jan-16 21:10 100 15 gusting 17 27.3
2020-Jan-16 21:00 100 15 gusting 17 27.427.1 1.2
2020-Jan-16 20:50 100 15 gusting 17 27.3
2020-Jan-16 20:00 110 13 gusting 15 27.527.2 1.0